sat.trackr.live / text

‹ back to catalog

NUSANTARA SATU

NORAD 44048 · 2019-009A

PAYLOAD ACTIVE UNKNOWN

§ Identity

Operator
Country
INDO
Launch date
2019-02-22
Launch site
AFETR
Launch vehicle
Mass (kg)
RCS (m²)

Purposes: comms

External: N2YO · Heavens-Above · Gunter

§ Orbital elements

Epoch: 2026-05-25T05:02:38.473728Z

Period
1,436.13 min
Inclination
0.0121°
Eccentricity
0.0004101
Mean motion
1.00269458 rev/d
Perigee alt
35,770.0 km
Apogee alt
35,804.5 km
Semi-major
42,165.4 km
B*
0.0000e+0
RAAN
117.0678°
Arg perigee
347.6214°
Mean anomaly
359.7822°
Rev number
2,654

§ Raw data

NUSANTARA SATU1 44048U 19009A   26145.21016752  .00000000  00000+0  00000+0 0  99992 44048   0.0121 117.0678 0004101 347.6214 359.7822  1.00269458 26547

JSON: /api/v1/satellites/44048 · /tle

For live sub-satellite position, see the globe view (requires WebGL).

§ Visibility from observer

Set your observer location to see the next 7 days of passes ≥ 10°. The values pass through the URL so the page stays shareable.

No JS? Fill the form by hand. The geolocation button needs JavaScript.